Weather Roundup
Issued by NWS Springfield, MO

Home | Current Version | Previous Version | Text Only | Print | Product List | Glossary On
Versions: 1 2 3 4 5 6 7 8 9 10 11 12 13 14 15 16 17 18 19 20 21 22 23 24 25 26 27 28 29 30 31 32 33 34 35 36 37 38 39 40 41 42 43 44 45 46 47 48 49 50
067
NZUS99 KSGF 250157
HRRSGF

HOURLY WEATHER
NATIONAL WEATHER SERVICE SPRINGFIELD MO
800 PM CST SAT FEB 24 2018

......SGF CWA......

CITY           SKY/WX    TMP DP  RH WIND       PRES   REMARKS
SPRINGFIELD    CLOUDY    42  39  89 W17G29    29.86R
JOPLIN         CLOUDY    40  36  86 W13       29.92R WCI  32
WEST PLAINS    CLOUDY    56  53  90 W14G21    29.76R
ROLLA          CLOUDY    48  47  96 W23G38    29.72R
BRANSON        CLOUDY    46  41  81 W10G23    29.86R

......SURROUNDING SGF CWA......

CITY           SKY/WX    TMP DP  RH WIND       PRES   REMARKS
CHANUTE        PTCLDY    37  33  85 W9        29.93R WCI  30
PARSONS        CLOUDY    40  35  83 W7        29.95R
COFFEYVILLE    PTCLDY    40  34  79 W12       29.95R WCI  33
EMPORIA        CLEAR     30  27  88 SW6       29.88R WCI  24
HARRISON AR    MOCLDY    47  42  83 W14G21    29.86R

......KANSAS AND MISSOURI......

CITY           SKY/WX    TMP DP  RH WIND       PRES   REMARKS
KANSAS CTY INT CLOUDY    34  29  82 W14G25    29.83R WCI  25
SEDALIA        CLOUDY    40  39  97 W16G24    29.80R WCI  31
ST JOSEPH      CLOUDY    33  30  88 W14       29.82R WCI  23
ST LOUIS       LGT RAIN  53  53 100 S9        29.61S VSB 1
WICHITA        CLEAR     33  30  88 SW5       29.91R WCI  29
TOPEKA         CLOUDY    35  30  82 W13G22    29.87R WCI  26
OLATHE         CLOUDY    33  30  88 W12G24    29.84R WCI  24

......TENNESSEE......

CITY           SKY/WX    TMP DP  RH WIND       PRES   REMARKS
MEMPHIS        NOT AVBL
NASHVILLE      CLOUDY    71  60  68 S18G30    29.85S

......ARKANSAS.......

CITY           SKY/WX    TMP DP  RH WIND       PRES   REMARKS
FAYETTEVILLE   MOCLDY    44  41  89 W10G22    29.93R
FT SMITH       PTCLDY    50  46  86 W8        29.93R
LITTLE ROCK    CLOUDY    59  58  96 W9        29.86R

......OKLAHOMA.......

CITY           SKY/WX    TMP DP  RH WIND       PRES   REMARKS
TULSA          CLEAR     42  36  79 W6        29.95R
PONCA CITY     CLEAR     37  30  75 CALM      29.94R
MCALESTER      PTCLDY    49  42  77 NW6       29.97R
OKLAHOMA CITY  CLEAR     42  33  70 N9        29.96R

......IOWA............

CITY           SKY/WX    TMP DP  RH WIND       PRES   REMARKS
DES MOINES     NOT AVBL
QUAD CITIES    LGT RAIN  43  43 100 E8        29.53F FOG

......ILLINOIS........

CITY           SKY/WX    TMP DP  RH WIND       PRES   REMARKS
QUINCY         LGT RAIN  45  45 100 W17       29.61R FOG
CHICAGO        LGT RAIN  44  41  89 SE17      29.61F




USA.gov is the U.S. government's official web portal to all federal, state and local government web resources and services.